Regional Weather Roundup
Issued by NWS

Home | Current Version | Previous Version | Text Only | Print | Product List | Glossary Off
Versions: 1 2 3 4 5 6 7 8 9 10 11 12 13 14 15 16 17 18 19 20 21 22 23 24 25 26 27 28 29 30 31 32 33 34 35 36 37 38 39 40 41 42 43 44 45 46 47 48 49 50

000
ASUS45 KABQ 291901
RWRNM
WEATHER ROUNDUP FOR NEW MEXICO
NATIONAL WEATHER SERVICE ALBUQUERQUE NM
100 PM MDT TUE JUL 29 2014

NOTE: "FAIR" MEANS FEW OR NO CLOUDS BELOW 12,000 FEET AGL WITH NO
       SIGNIFICANT WEATHER OR OBSTRUCTIONS TO VISION.

      THIS PRODUCT IS RELEASED AS TWO VERSIONS.  ONE VERSION NEAR
      THE TOP OF THE HOUR CONTAINING PRELIMINARY DATA FROM ALBUQUERQUE
      AND OTHER STATIONS.  A FINAL VERSION WITH ADDITIONAL DATA IS
      ISSUED ABOUT 10 MINUTES AFTER THE HOUR.

NMZ501-503-504-510>518-292000-
NORTHWEST PLATEAU/NORTHCENTRAL MOUNTAINS

CITY           SKY/WX    TMP DP  RH WIND       PRES   REMARKS
FARMINGTON     SUNNY     79  54  41 VRB3      30.25F
LOS ALAMOS     LGT RAIN  64  63  96 W6        30.39F
SANTA FE       MOSUNNY   74  59  59 SW7       30.32F
TAOS           PTSUNNY   73  52  46 SW10      30.37F
ANGEL FIRE     FAIR      69  52  54 SW8       30.42F

$$
NMZ402-403-502-505>509-292000-
WESTCENTRAL MOUNTAINS/SOUTHWEST MOUNTAINS

CITY           SKY/WX    TMP DP  RH WIND       PRES   REMARKS
GALLUP         SUNNY     80  54  40 VRB5      30.33F

$$
NMZ407-409-411-412-292000-
SOUTHERN DESERTS

CITY           SKY/WX    TMP DP  RH WIND       PRES   REMARKS
LORDSBURG      FAIR      88  55  33 W3        30.20F
DEMING         PTSUNNY   87  58  37 VRB3      30.21F
LAS CRUCES     SUNNY     84  60  44 SW7       30.25F
HOLLOMAN AFB   MOSUNNY   81  63  54 SW8       30.21F
T OR C         MOSUNNY   87  57  35 VRB7      30.22F

$$
NMZ519>523-292000-
CENTRAL VALLEYS/CENTRAL HIGHLANDS

CITY           SKY/WX    TMP DP  RH WIND       PRES   REMARKS
ALBUQUERQUE    MOSUNNY   79  58  48 S8        30.27F
DOUBLE EAGLE   PTSUNNY   77  57  50 S7        30.30F
CLINES CORNERS CLOUDY    71  59  65 SW13      30.36F
BELEN          FAIR      82  56  41 S3        30.25F
SOCORRO        TSTM      81  59  46 W14       30.26R

$$
NMZ524>526-539-540-292000-
SOUTHCENTRAL MOUNTAINS

CITY           SKY/WX    TMP DP  RH WIND       PRES   REMARKS
RUIDOSO        NOT AVBL

$$
NMZ527>531-292000-
NORTHEAST HIGHLANDS/NORTHEAST PLAINS

CITY           SKY/WX    TMP DP  RH WIND       PRES   REMARKS
LAS VEGAS      PTSUNNY   71  60  68 S20       30.33F
RATON          PTSUNNY   73  58  59 S12       30.29F
CLAYTON        PTSUNNY   79  58  48 S17G24    30.23F

$$
NMZ532>537-292000-
EASTCENTRAL PLAINS

CITY           SKY/WX    TMP DP  RH WIND       PRES   REMARKS
TUCUMCARI      PTSUNNY   76  63  64 SW15      30.21F
CANNON AFB     NOT AVBL
CLOVIS AIRPORT NOT AVBL

$$
NMZ028-029-538-292000-
SOUTHEAST PLAINS

CITY           SKY/WX    TMP DP  RH WIND       PRES   REMARKS
ROSWELL        CLOUDY    70  65  84 SE7       30.23F
ARTESIA        CLOUDY    77  64  65 E9        30.21F
CARLSBAD       MOSUNNY   89  60  37 VRB6      30.17F
HOBBS          MOSUNNY   81  61  50 N8        30.25F


$$


USA.gov is the U.S. government's official web portal to all federal, state and local government web resources and services.